New Ulm, MN

7:32 PM CDT on August 25, 2016 (GMT -0500)
New Ulm Municipal

Weather History for KULM - September, 2012

Change the Weather History Date:

Wednesday, September 5, 2012

  Actual Average Record
Temperature  
Mean Temperature 68 °F -  
Max Temperature 80 °F 78 °F 93 °F (1960)
Min Temperature 55 °F 54 °F 35 °F (1962)
Cooling Degree Days 4    
Growing Degree Days 18 (Base 50)    
Moisture  
Dew Point 51 °F    
Average Humidity 58    
Maximum Humidity 94    
Minimum Humidity 23    
Precipitation  
Precipitation 0.07 in - - ()
Sea Level Pressure  
Sea Level Pressure 29.86 in    
Wind  
Wind Speed 6 mph (NNW)    
Max Wind Speed 18 mph    
Max Gust Speed 24 mph    
Visibility 10 miles    
Events Rain , Thunderstorm    
Averages and records for this station are not official NWS values.
T = Trace of Precipitation, MM = Missing Value Source: NWS Daily Summary

Daily Weather History Graph

Daily Weather History Graph

Search for Another Location

Airport or City:

Trip Planner

Search our weather history database for the weather conditions in past years. The results will help you decide how hot, cold, wet, or windy it might be!

Date:

Astronomy

Sep. 05, 2012 Rise Set
Actual Time 6:46 AM CDT 7:46 PM CDT
Civil Twilight 6:16 AM CDT 8:15 PM CDT
Nautical Twilight 5:41 AM CDT 8:50 PM CDT
Astronomical Twilight 5:03 AM CDT 9:27 PM CDT
Moon 10:01 PM CDT (9/5) 12:04 PM CDT (9/5)
Length of Visible Light 13h 59m
Length of Day
13h 00m
Waning Gibbous, 76% of the Moon is Illuminated
Sep 5
Waning Gibbous
Sep 8
Last Quarter
Sep 15
New
Sep 22
First Quarter
Sep 29
Full

Hourly Weather History & Observations

Time (CDT) Temp. Dew Point Humidity Pressure Visibility Wind Dir Wind Speed Gust Speed Precip Events Conditions
12:13 AM 64.4 °F 59.0 °F 83% 29.88 in 10.0 mi NNW 6.9 mph - 0.04 in Rain , Thunderstorm Rain
12:32 AM 64.4 °F 57.2 °F 77% 29.78 in 10.0 mi East 10.4 mph - 0.07 in Rain Light Rain
12:53 AM 64.4 °F 59.0 °F 83% 29.75 in 10.0 mi North - - 0.07 in   Clear
1:13 AM 64.4 °F 57.2 °F 77% 29.77 in 10.0 mi East 9.2 mph - N/A   Clear
1:53 AM 62.6 °F 59.0 °F 88% 29.79 in 10.0 mi South 9.2 mph - N/A   Clear
2:13 AM 62.6 °F 59.0 °F 88% 29.78 in 10.0 mi South 6.9 mph - N/A   Clear
2:32 AM 62.6 °F 57.2 °F 82% 29.77 in 10.0 mi Calm Calm - N/A   Clear
2:53 AM 62.6 °F 57.2 °F 82% 29.77 in 10.0 mi Calm Calm - N/A   Clear
3:01 AM 60.8 °F 57.2 °F 88% 29.77 in 10.0 mi Calm Calm - N/A   Clear
3:33 AM 60.8 °F 55.4 °F 82% 29.78 in 10.0 mi Calm Calm - N/A   Clear
3:53 AM 60.8 °F 57.2 °F 88% 29.79 in 10.0 mi North 3.5 mph - N/A   Clear
4:12 AM 59.0 °F 55.4 °F 88% 29.81 in 10.0 mi NNW 5.8 mph - N/A   Clear
4:53 AM 59.0 °F 55.4 °F 88% 29.82 in 10.0 mi NNW 5.8 mph - N/A   Clear
5:12 AM 59.0 °F 55.4 °F 88% 29.83 in 10.0 mi Calm Calm - N/A   Clear
5:33 AM 60.8 °F 55.4 °F 82% 29.83 in 10.0 mi NNE 3.5 mph - N/A   Clear
5:53 AM 59.0 °F 55.4 °F 88% 29.83 in 10.0 mi NNE 3.5 mph - N/A   Clear
6:12 AM 59.0 °F 55.4 °F 88% 29.83 in 10.0 mi Calm Calm - N/A   Clear
6:33 AM 59.0 °F 55.4 °F 88% 29.84 in 10.0 mi Calm Calm - N/A   Clear
6:52 AM 57.2 °F 55.4 °F 94% 29.86 in 10.0 mi NNW 6.9 mph - N/A   Clear
7:13 AM 60.8 °F 55.4 °F 82% 29.87 in 10.0 mi NNW 8.1 mph - N/A   Clear
7:33 AM 60.8 °F 55.4 °F 82% 29.87 in 10.0 mi NNW 5.8 mph - N/A   Clear
7:52 AM 62.6 °F 55.4 °F 77% 29.86 in 10.0 mi ENE 3.5 mph - N/A   Clear
8:13 AM 62.6 °F 57.2 °F 82% 29.86 in 10.0 mi South 3.5 mph - N/A   Clear
8:33 AM 64.4 °F 59.0 °F 83% 29.85 in 10.0 mi Calm Calm - N/A   Clear
8:52 AM 66.2 °F 59.0 °F 78% 29.84 in 10.0 mi South 3.5 mph - N/A   Clear
9:13 AM 68.0 °F 60.8 °F 78% 29.85 in 10.0 mi Calm Calm - N/A   Clear
9:33 AM 71.6 °F 57.2 °F 60% 29.85 in 10.0 mi NE 3.5 mph - N/A   Clear
9:52 AM 71.6 °F 60.8 °F 69% 29.86 in 10.0 mi North 6.9 mph - N/A   Clear
10:13 AM 73.4 °F 53.6 °F 50% 29.86 in 10.0 mi NNW 4.6 mph - N/A   Clear
10:33 AM 75.2 °F 53.6 °F 47% 29.85 in 10.0 mi North 3.5 mph - N/A   Clear
10:52 AM 75.2 °F 51.8 °F 44% 29.85 in 10.0 mi North 3.5 mph - N/A   Clear
11:13 AM 77.0 °F 51.8 °F 41% 29.86 in 10.0 mi North 6.9 mph - N/A   Clear
11:33 AM 78.8 °F 51.8 °F 39% 29.86 in 10.0 mi North 5.8 mph - N/A   Clear
11:52 AM 77.0 °F 53.6 °F 44% 29.87 in 10.0 mi NW 11.5 mph - N/A   Clear
12:13 PM 77.0 °F 51.8 °F 41% 29.87 in 10.0 mi North 8.1 mph 18.4 mph N/A   Clear
12:33 PM 78.8 °F 53.6 °F 42% 29.87 in 10.0 mi NW 12.7 mph - N/A   Clear
12:52 PM 78.8 °F 51.8 °F 39% 29.87 in 10.0 mi NW 11.5 mph 18.4 mph N/A   Clear
1:13 PM 80.6 °F 51.8 °F 37% 29.86 in 10.0 mi NNW 11.5 mph 17.3 mph N/A   Clear
1:32 PM 80.6 °F 48.2 °F 32% 29.86 in 7.0 mi NW 13.8 mph 21.9 mph N/A   Clear
1:53 PM 80.6 °F 51.8 °F 37% 29.86 in 10.0 mi WNW 16.1 mph 23.0 mph N/A   Clear
2:13 PM 80.6 °F 50.0 °F 34% 29.86 in 10.0 mi NW 10.4 mph - N/A   Clear
2:32 PM 80.6 °F 48.2 °F 32% 29.85 in 10.0 mi NW 15.0 mph - N/A   Clear
2:53 PM 80.6 °F 50.0 °F 34% 29.85 in 10.0 mi NW 13.8 mph 23.0 mph N/A   Clear
3:13 PM 80.6 °F 46.4 °F 30% 29.86 in 10.0 mi NW 13.8 mph 24.2 mph N/A   Clear
3:32 PM 80.6 °F 46.4 °F 30% 29.86 in 10.0 mi WNW 13.8 mph 21.9 mph N/A   Clear
3:53 PM 80.6 °F 44.6 °F 28% 29.87 in 10.0 mi NW 17.3 mph 23.0 mph N/A   Clear
4:13 PM 80.6 °F 42.8 °F 26% 29.87 in 10.0 mi WNW 18.4 mph 21.9 mph N/A   Clear
4:32 PM 80.6 °F 39.2 °F 23% 29.87 in 10.0 mi WNW 15.0 mph 20.7 mph N/A   Clear
4:53 PM 80.6 °F 39.2 °F 23% 29.87 in 10.0 mi WNW 16.1 mph - N/A   Clear
5:13 PM 78.8 °F 37.4 °F 23% 29.87 in 10.0 mi NW 13.8 mph - N/A   Clear
5:32 PM 78.8 °F 37.4 °F 23% 29.87 in 10.0 mi NW 13.8 mph - N/A   Clear
5:53 PM 78.8 °F 37.4 °F 23% 29.88 in 10.0 mi NW 10.4 mph 18.4 mph N/A   Clear
6:12 PM 77.0 °F 37.4 °F 24% 29.88 in 10.0 mi NW 11.5 mph - N/A   Clear
6:33 PM 77.0 °F 39.2 °F 26% 29.88 in 10.0 mi NW 9.2 mph - N/A   Clear
6:53 PM 75.2 °F 41.0 °F 29% 29.89 in 10.0 mi NW 6.9 mph - N/A   Clear
7:12 PM 73.4 °F 42.8 °F 33% 29.89 in 10.0 mi NW 6.9 mph - N/A   Clear
7:33 PM 69.8 °F 44.6 °F 40% 29.89 in 10.0 mi NW 4.6 mph - N/A   Clear
7:53 PM 69.8 °F 44.6 °F 40% 29.90 in 10.0 mi NW 3.5 mph - N/A   Clear
8:12 PM 69.8 °F 44.6 °F 40% 29.91 in 10.0 mi Calm Calm - N/A   Clear
8:53 PM 66.2 °F 46.4 °F 49% 29.92 in 10.0 mi NW 4.6 mph - N/A   Clear
9:13 PM 64.4 °F 46.4 °F 52% 29.92 in 10.0 mi NW 5.8 mph - N/A   Clear
9:33 PM 62.6 °F 46.4 °F 55% 29.92 in 10.0 mi NW 4.6 mph - N/A   Clear
9:53 PM 64.4 °F 46.4 °F 52% 29.92 in 10.0 mi NW 3.5 mph - N/A   Clear
10:13 PM 59.0 °F 48.2 °F 67% 29.92 in 10.0 mi NW 3.5 mph - N/A   Clear
10:32 PM 59.0 °F 48.2 °F 67% 29.93 in 10.0 mi Calm Calm - N/A   Clear
10:53 PM 59.0 °F 48.2 °F 67% 29.93 in 10.0 mi Calm Calm - N/A   Clear
11:13 PM 57.2 °F 48.2 °F 72% 29.93 in 10.0 mi Calm Calm - N/A   Clear
11:32 PM 57.2 °F 48.2 °F 72% 29.94 in 10.0 mi Calm Calm - N/A   Clear
11:53 PM 55.4 °F 48.2 °F 77% 29.94 in 10.0 mi Calm Calm - N/A   Clear